Location: Unspecified
(0.0000°N, 0.0000°E)
Time: 04:35:15
(UTC+00:00)

Tiangong - Visible Passes

Search period start: 16 May 2026 00:00
Search period end: 26 May 2026 00:00
Orbit: 379 x 384 km, 41.5° (Epoch: 13 May)

Date Brightness Start Highest point End Pass type
(mag) Time Alt. Az. Time Alt. Az. Time Alt. Az.
16 May 0.5 19:15:06 10° W 19:17:32 21° NW 19:19:57 10° N visible
17 May 1.6 05:10:12 10° NE 05:10:29 10° NE 05:10:46 10° NE visible
19 May 0.3 04:42:58 10° NNW 04:45:34 24° NE 04:48:11 10° E visible
20 May -1.6 05:18:25 10° WNW 05:21:21 37° SW 05:24:19 10° SSE visible
21 May -0.9 04:21:32 38° ESE 04:21:32 38° ESE 04:23:40 10° SE visible
22 May 0.2 04:57:48 12° SSW 04:57:48 12° SSW 04:58:13 10° S visible
